Flag for Norway Weather past 2 weeks in Haugesund, Norway

Now
70 °F

Fog.


Feels Like: 70 °F
Forecast: 63 / 76 °F
Wind: 9 mph from North

Location: Haugesund / Karmoy

Current Time: Jul 24, 2014 at 3:38:26 PM

Latest Report: Jul 24, 2014 at 2:50 PM


Visibility: N/A

Pressure: 30.18 "Hg

Humidity: 83%

Dew point: 64 °F

Location of HaugesundLocation

Historic Weather in Haugesund — Graph

°F

Haugesund temperature yesterday

Maximum temperature yesterday: 73 °F (at 4:20 PM)
Minimum temperature yesterday: 64 °F (at 3:20 AM)
Average temperature yesterday: 68 °F

Past Weeks' High & Low Weather Summary

 TemperatureHumidityPressure
High82 °F (Jul 10, 11:20 AM)100% (Jul 10, 3:20 AM)30.30 "Hg (Jul 10, 3:20 AM)
Low52 °F (Jul 18, 3:50 AM)37% (Jul 20, 1:20 PM)29.65 "Hg (Jul 14, 1:20 AM)
Average66 °F75%30.02 "Hg
* Reported Jul 9 2:50 PM — Jul 24 2:20 PM, Haugesund, Weather by CustomWeather, © 2014

Note: Actual official high and low records may vary slightly from our data, if they occured in-between our weather recording intervals... More about our weather records

Advertising

Haugesund weather history for previous 24 hours

 ConditionsComfort  
Time TempWeatherWind HumidityBarometerVisibility
2:20 PM
Jul 24
70 °FFog.10 mph83%30.18 "HgN/A
1:50 PM70 °FPassing clouds.10 mph83%30.18 "HgN/A
1:20 PM72 °FSunny.9 mph78%30.18 "Hg10 mi
12:50 PM70 °FSunny.10 mph83%30.21 "Hg10 mi
12:20 PM70 °FSunny.9 mph83%30.21 "Hg10 mi
11:50 AM70 °FSunny.10 mph83%30.21 "Hg10 mi
11:20 AM70 °FSunny.9 mph83%30.21 "Hg10 mi
10:50 AM70 °FSunny.9 mph83%30.21 "Hg10 mi
10:20 AM70 °FSunny.9 mph83%30.21 "Hg10 mi
9:50 AM68 °FSunny.8 mph88%30.21 "Hg10 mi
9:20 AM68 °FSunny.8 mph88%30.21 "Hg10 mi
8:50 AM68 °FSunny.8 mph88%30.21 "Hg10 mi
8:20 AM68 °FSunny.6 mph88%30.21 "Hg10 mi
7:50 AM66 °FSunny.6 mph88%30.21 "Hg10 mi
7:20 AM66 °FSunny.5 mph88%30.21 "Hg10 mi
6:50 AM64 °FPassing clouds.6 mph94%30.21 "HgN/A
6:20 AM64 °FSunny.6 mph94%30.21 "Hg10 mi
5:50 AM64 °FClear.5 mph94%30.21 "Hg10 mi
5:20 AM64 °FPassing clouds.3 mph94%30.21 "Hg5 mi
4:50 AM64 °FPassing clouds.6 mph94%30.21 "Hg5 mi
4:20 AM64 °FMild.3 mph94%30.21 "Hg6 mi
3:50 AM64 °FMild.5 mph94%30.21 "Hg5 mi
3:20 AM64 °FMild.5 mph94%30.21 "HgN/A
2:50 AM66 °FMild.8 mph88%30.21 "HgN/A
2:20 AM66 °FMild.9 mph88%30.24 "HgN/A
1:50 AM66 °FMild.7 mph88%30.24 "HgN/A
1:20 AM66 °FMild.7 mph94%30.24 "HgN/A
12:50 AM66 °FMild.7 mph94%30.24 "HgN/A
12:20 AM66 °FMild.7 mph88%30.24 "HgN/A
11:50 PM
Jul 23
66 °FMild.6 mph94%30.24 "HgN/A
11:20 PM66 °FSunny.12 mph88%30.24 "Hg10 mi
10:50 PM68 °FSunny.7 mph88%30.24 "Hg10 mi
10:20 PM68 °FSunny.10 mph83%30.24 "Hg10 mi
9:50 PM68 °FSunny.12 mph83%30.24 "Hg10 mi
8:50 PM70 °FSunny.13 mph78%30.24 "Hg10 mi
8:20 PM70 °FSunny.14 mph83%30.24 "Hg10 mi
7:50 PM70 °FSunny.12 mph83%30.24 "Hg10 mi
7:20 PM70 °FSunny.12 mph78%30.24 "Hg10 mi
6:50 PM72 °FSunny.14 mph73%30.24 "Hg10 mi
6:20 PM72 °FSunny.12 mph73%30.24 "Hg10 mi
5:50 PM72 °FSunny.12 mph78%30.27 "Hg10 mi
5:20 PM72 °FSunny.12 mph78%30.27 "Hg10 mi
4:50 PM73 °FSunny.12 mph74%30.27 "Hg10 mi
4:20 PM73 °FSunny.12 mph74%30.27 "Hg10 mi
3:50 PM72 °FSunny.14 mph78%30.27 "Hg10 mi
Weather by CustomWeather, © 2014

See weather overviewHow to use our weather pages